STARLINK-11548, 62829

Orbit data source: Space-Track

STARLINK-11548, 62829 is a payload satellite owned by SpaceX/Seattle (US) in LEO that was launched on Mon, 27 Jan 2025 UTC via an FALCON 9 launch vehicle from the Air Force Eastern Test Range (AFETR). Payload-class satellites include a variety of spacecraft equipped with specific instruments for various scientific and technological missions. These include communications satellites like Starlink; space stations such as the ISS; scientific satellites like the Hubble; Earth observation satellites from companies like Planet Labs, Umbra, and HawkEye 360; GPS; miniature CubeSats for education and research; and military/defense satellites.

Loading next visibility...
Identifier
62829, 2025-019A
Orbit
LEO
Country
Flag of USUS
Related business
Manufacturer
SpaceX/Seattle
Mission
Operational Commercial Communications
Bus & Motor
STARLINK V2MD, Unknown motor
Mass
960 kg wet, ~910 kg dry
Launch date (UTC)
2025-01-27 (2 years ago)
Launch vehicle
FALCON 9
Launch site
Air Force Eastern Test Range (AFETR)
Object type
Payload
Rocket body
Debris
Shape & HBR
Box + 2 Pan, 18.1 m
Radar Cross Section
36.964 m², Large (>1 m²)

Expand to show TLE details & history
Last TLE update: 7 hours ago

TLE from 7 hours ago
0 STARLINK-11548
1 62829U 25019A   26247.86479561  .00085443  00000-0  66227-3 0  9991
2 62829  42.9993 305.6815 0000700 287.9592  72.1199 15.70850172 92064
Epoch: 2026-09-04T20:45Z
TLE epoch observation values (Epoch: 2026-09-04T20:45:18.340Z)
Latitude
-0.00005°
Longitude
10.37254°
Altitude
356.092 km
Speed
7.697 km/s
True Right ascension
20h 22m 43s
True Declination
0° 00' 00"
Sunlit
Object was in full shadow at epoch
Visualization orbit readout
Latitude
Unknown
Longitude
Unknown
Altitude
Unknown
Speed
Unknown
Apparent Right ascension
Unknown
Apparent Declination
Unknown
Sunlit
N/A
Visualization observer readout
Local Sidereal Time
20:01:07
Azimuth
Unknown
Elevation
Unknown
Doppler factor
Unknown
Orbital elements
Apogee altitude
358.919 km
Perigee altitude
357.976 km
Semi-major axis
6,736.585 km
Eccentricity
0.00007
Inclination
42.9993°
RAAN
305.6815°
Arg. of periapsis
287.9592°
True anomaly
72.12753°
Mean anomaly
72.1199°
Eccentric anomaly
72.12372°
Mean motion
3.9254 °/min
Orbital period
91.71 mins
BSTAR
0.00066227
Loading maneuver chart data...
Computing Atmospheric mass density...
Loading historical data...
Loading historical data...
Loading historical data...
Loading historical data...
Loading historical data...
Loading historical data...
Loading historical data...

Documentation

Showing up to 5 results
|